Flag for Norway Weather past 2 weeks in Kirkenes, Norway

Now
39 °F

Broken clouds.


Feels Like: 30 °F
Forecast: 39 / 43 °F
Wind: 17 mph from Northwest

Location: Kirkenes Lufthavn

Current Time: May 24, 2015 at 11:48:11 PM

Latest Report: May 24, 2015 at 10:50 PM


Visibility: N/A

Pressure: 29.39 "Hg

Humidity: 75%

Dew point: 32 °F

Location of KirkenesLocation

Historic Weather in Kirkenes — Graph

°F

Kirkenes temperature yesterday

Maximum temperature yesterday: 52 °F (at 1:20 PM)
Minimum temperature yesterday: 43 °F (at 11:50 PM)
Average temperature yesterday: 47 °F

Past Weeks' High & Low Weather Summary

 TemperatureHumidityPressure
High57 °F (May 22, 6:20 PM)100% (May 10, 6:50 AM)30.04 "Hg (May 10, 6:50 AM)
Low32 °F (May 16, 2:20 AM)27% (May 22, 6:20 PM)29.09 "Hg (May 24, 5:50 AM)
Average41 °F79%29.69 "Hg
* Reported May 9 10:20 PM — May 24 10:20 PM, Kirkenes, Weather by CustomWeather, © 2015

Note: Actual official high and low records may vary slightly from our data, if they occured in-between our weather recording intervals... More about our weather records

Advertising

Kirkenes weather history for previous 24 hours

 ConditionsComfort  
Time TempWeatherWind HumidityBarometerVisibility
10:20 PM
Sun, May 24
39 °FBroken clouds.21 mph81%29.39 "HgN/A
9:50 PM39 °FPartly sunny.20 mph81%29.36 "HgN/A
9:20 PM39 °FPartly sunny.23 mph81%29.36 "HgN/A
8:50 PM39 °FBroken clouds.23 mph81%29.36 "HgN/A
8:20 PM39 °FPartly sunny.22 mph81%29.33 "HgN/A
7:50 PM39 °FScattered showers. Partly sunny.22 mph81%29.33 "HgN/A
7:20 PM39 °FScattered showers. Partly sunny.22 mph81%29.33 "HgN/A
6:50 PM39 °FBroken clouds.20 mph81%29.33 "HgN/A
6:20 PM41 °FScattered showers. Partly sunny.26 mph81%29.30 "HgN/A
5:50 PM39 °FLight rain. Partly sunny.26 mph87%29.27 "HgN/A
5:20 PM41 °FLight rain. Partly sunny.28 mph81%29.27 "HgN/A
4:50 PM41 °FPartly sunny.25 mph81%29.24 "HgN/A
4:20 PM41 °FPartly sunny.25 mph81%29.24 "HgN/A
3:50 PM41 °FPartly sunny.25 mph87%29.21 "HgN/A
3:20 PM41 °FPartly sunny.21 mph81%29.21 "HgN/A
2:50 PM41 °FBroken clouds.20 mph81%29.21 "HgN/A
2:20 PM41 °FBroken clouds.20 mph87%29.21 "HgN/A
1:50 PM41 °FPartly sunny.22 mph87%29.18 "HgN/A
1:20 PM43 °FDrizzle. Partly sunny.10 mph87%29.18 "HgN/A
12:50 PM43 °FSprinkles. Partly sunny.10 mph87%29.18 "HgN/A
12:20 PM45 °FScattered showers. Broken clouds.14 mph81%29.18 "HgN/A
11:50 AM45 °FScattered showers. Partly sunny.13 mph81%29.15 "HgN/A
11:20 AM43 °FPartly sunny.12 mph87%29.15 "HgN/A
10:50 AM41 °FPartly sunny.10 mph93%29.15 "HgN/A
10:20 AM41 °FLight rain. Broken clouds.13 mph87%29.15 "HgN/A
9:50 AM41 °FLight rain. Broken clouds.12 mph93%29.15 "HgN/A
9:20 AM43 °FRain. Broken clouds.3 mph93%29.12 "HgN/A
8:50 AM43 °FRain. Broken clouds.6 mph93%29.12 "HgN/A
8:20 AM41 °FDrizzle. Partly sunny.6 mph93%29.12 "HgN/A
7:50 AM41 °FDrizzle. Broken clouds.5 mph93%29.12 "HgN/A
7:20 AM41 °FLight rain. More clouds than sun.7 mph93%29.12 "HgN/A
6:50 AM41 °FDrizzle. Partly sunny.6 mph87%29.12 "HgN/A
6:20 AM39 °FDrizzle. Fog.6 mph93%29.09 "HgN/A
5:50 AM39 °FLight rain. Fog.8 mph87%29.09 "HgN/A
5:20 AM39 °FDrizzle. Partly sunny.7 mph87%29.12 "HgN/A
4:50 AM39 °FLight rain. More clouds than sun.8 mph93%29.12 "HgN/A
4:20 AM39 °FDrizzle. Broken clouds.9 mph87%29.12 "HgN/A
3:50 AM39 °FLight rain. Partly sunny.8 mph93%29.12 "HgN/A
3:20 AM41 °FDrizzle. Overcast.8 mph93%29.12 "HgN/A
2:50 AM41 °FLight rain. Fog.8 mph87%29.12 "HgN/A
2:20 AM41 °FDrizzle. Cloudy.12 mph87%29.12 "HgN/A
1:50 AM43 °FScattered clouds.3 mph87%29.12 "HgN/A
1:20 AM43 °FMore clouds than sun.3 mph87%29.15 "HgN/A
12:50 AM43 °FOvercast.No wind87%29.15 "HgN/A
12:20 AM43 °FOvercast.2 mph87%29.15 "HgN/A
11:50 PM
Sat, May 23
43 °FOvercast.3 mph93%29.15 "HgN/A
11:20 PM45 °FOvercast.10 mph81%29.18 "HgN/A
Weather by CustomWeather, © 2015

See weather overviewHow to use our weather pages